Location: Newark
(41.0400°S, 62.7845°W)
Time: 01:45:22
(UTC+00:00)

Vanguard 2 Rocket - Pass Details

Date: 01 December 2021
Orbit: 554 x 3325 km, 32.9° (Epoch: 21 January)

Event Time Altitude Azimuth Distance (km) Brightness Sun altitude
Rises 13:25:23 0° 273° (W) 6,073 10.8 52.3°
Reaches altitude 10° 13:30:12 10° 277° (W) 4,609 10.3 53.1°
Maximum altitude 13:41:05 47° 345° (NNW) 1,735 9.1 55.0°
Drops below altitude 10° 13:47:22 10° 58° (ENE) 2,702 10.1 56.1°
Sets 13:49:30 0° 64° (ENE) 3,414 10.4 56.5°
